| time (UTC) | temp C | wind direction | speed KPH | gust KPH | rain 1hr cm | rain 24hr cm | rain mn cm | humidity % | barometer mb |
| 20260505001316 | 18 | 283 | 11.3 | 16.1 | 0.00 | 0.00 | 0.00 | 64 | 1014.8 |
| 20260505000816 | 18 | 283 | 11.3 | 14.5 | 0.00 | 0.00 | 0.00 | 65 | 1014.7 |
| 20260505000316 | 18 | 283 | 9.7 | 14.5 | 0.00 | 0.00 | 0.00 | 64 | 1014.7 |
| 20260504235816 | 17 | 260 | 16.1 | 24.1 | 0.00 | 0.00 | 0.00 | 62 | 1014.7 |
| 20260504235315 | 18 | 260 | 14.5 | 17.7 | 0.00 | 0.00 | 0.00 | 63 | 1014.7 |
| 20260504234815 | 18 | 283 | 9.7 | 14.5 | 0.00 | 0.00 | 0.00 | 63 | 1014.7 |
| 20260504234316 | 18 | 260 | 14.5 | 19.3 | 0.00 | 0.00 | 0.00 | 63 | 1014.5 |
| 20260504233836 | 18 | 260 | 12.9 | 19.3 | 0.00 | 0.00 | 0.00 | 63 | 1014.6 |
| 20260504233316 | 18 | 283 | 12.9 | 19.3 | 0.00 | 0.00 | 0.00 | 62 | 1014.5 |
| 20260504232816 | 18 | 260 | 11.3 | 16.1 | 0.00 | 0.00 | 0.00 | 63 | 1014.4 |
| 20260504232316 | 18 | 283 | 12.9 | 20.9 | 0.00 | 0.00 | 0.00 | 63 | 1014.5 |
| 20260504231815 | 18 | 283 | 12.9 | 22.5 | 0.00 | 0.00 | 0.00 | 62 | 1014.5 |
| 20260504231336 | 18 | 283 | 12.9 | 22.5 | 0.00 | 0.00 | 0.00 | 61 | 1014.5 |
| 20260504230816 | 18 | 283 | 17.7 | 27.4 | 0.00 | 0.00 | 0.00 | 61 | 1014.5 |
| 20260504230356 | 18 | 283 | 16.1 | 24.1 | 0.00 | 0.00 | 0.00 | 63 | 1014.5 |
| 20260504225815 | 18 | 283 | 9.7 | 19.3 | 0.00 | 0.00 | 0.00 | 64 | 1014.6 |
| 20260504225336 | 18 | 283 | 11.3 | 16.1 | 0.00 | 0.00 | 0.00 | 62 | 1014.7 |
| 20260504224815 | 18 | 283 | 11.3 | 17.7 | 0.00 | 0.00 | 0.00 | 63 | 1014.7 |
| 20260504224315 | 18 | 283 | 16.1 | 22.5 | 0.00 | 0.00 | 0.00 | 62 | 1014.9 |
| 20260504223815 | 18 | 283 | 14.5 | 19.3 | 0.00 | 0.00 | 0.00 | 63 | 1014.7 |
| 20260504223316 | 19 | 260 | 14.5 | 25.7 | 0.00 | 0.00 | 0.00 | 62 | 1014.8 |
| 20260504222815 | 19 | 283 | 16.1 | 24.1 | 0.00 | 0.00 | 0.00 | 61 | 1014.9 |
| 20260504222356 | 20 | 260 | 9.7 | 17.7 | 0.00 | 0.00 | 0.00 | 60 | 1014.8 |
| 20260504221815 | 19 | 260 | 14.5 | 25.7 | 0.00 | 0.00 | 0.00 | 60 | 1014.9 |
| 20260504221316 | 19 | 260 | 16.1 | 22.5 | 0.00 | 0.00 | 0.00 | 59 | 1014.9 |
| 20260504220816 | 19 | 260 | 16.1 | 24.1 | 0.00 | 0.00 | 0.00 | 58 | 1015.0 |
| 20260504220315 | 19 | 260 | 12.9 | 19.3 | 0.00 | 0.00 | 0.00 | 58 | 1015.0 |
| 20260504215815 | 19 | 283 | 9.7 | 16.1 | 0.00 | 0.00 | 0.00 | 59 | 1015.1 |
| 20260504215315 | 19 | 260 | 19.3 | 25.7 | 0.00 | 0.00 | 0.00 | 60 | 1015.1 |
| 20260504214836 | 19 | 260 | 12.9 | 22.5 | 0.00 | 0.00 | 0.00 | 60 | 1015.1 |
| 20260504214316 | 19 | 283 | 12.9 | 20.9 | 0.00 | 0.00 | 0.00 | 60 | 1015.2 |
| 20260504213816 | 20 | 260 | 9.7 | 14.5 | 0.00 | 0.00 | 0.00 | 58 | 1015.2 |
| 20260504213315 | 20 | 260 | 12.9 | 19.3 | 0.00 | 0.00 | 0.00 | 57 | 1015.2 |
| 20260504212816 | 20 | 260 | 11.3 | 20.9 | 0.00 | 0.00 | 0.00 | 58 | 1015.3 |
| 20260504212315 | 20 | 260 | 9.7 | 22.5 | 0.00 | 0.00 | 0.00 | 56 | 1015.3 |
| 20260504211816 | 20 | 238 | 9.7 | 14.5 | 0.00 | 0.00 | 0.00 | 55 | 1015.3 |
| 20260504211315 | 20 | 215 | 12.9 | 17.7 | 0.00 | 0.00 | 0.00 | 56 | 1015.4 |
| 20260504210816 | 20 | 283 | 11.3 | 17.7 | 0.00 | 0.00 | 0.00 | 56 | 1015.3 |
| 20260504210335 | 20 | 260 | 8.0 | 14.5 | 0.00 | 0.00 | 0.00 | 57 | 1015.3 |
| 20260504205815 | 20 | 283 | 12.9 | 20.9 | 0.00 | 0.00 | 0.00 | 57 | 1015.2 |
| 20260504205315 | 20 | 283 | 14.5 | 22.5 | 0.00 | 0.00 | 0.00 | 57 | 1015.2 |
| 20260504204816 | 20 | 260 | 9.7 | 16.1 | 0.00 | 0.00 | 0.00 | 58 | 1015.3 |
| 20260504204315 | 20 | 283 | 11.3 | 20.9 | 0.00 | 0.00 | 0.00 | 57 | 1015.3 |
| 20260504203815 | 20 | 283 | 12.9 | 19.3 | 0.00 | 0.00 | 0.00 | 56 | 1015.3 |
| 20260504203315 | 20 | 260 | 9.7 | 14.5 | 0.00 | 0.00 | 0.00 | 55 | 1015.3 |
| 20260504202835 | 20 | 283 | 9.7 | 17.7 | 0.00 | 0.00 | 0.00 | 52 | 1015.3 |
| 20260504202315 | 20 | 283 | 11.3 | 14.5 | 0.00 | 0.00 | 0.00 | 52 | 1015.3 |
| 20260504201815 | 20 | 283 | 9.7 | 12.9 | 0.00 | 0.00 | 0.00 | 51 | 1015.3 |
| 20260504201335 | 20 | 260 | 6.4 | 9.7 | 0.00 | 0.00 | 0.00 | 51 | 1015.5 |
| 20260504200816 | 20 | 260 | 12.9 | 20.9 | 0.00 | 0.00 | 0.00 | 51 | 1015.5 |
| 20260504200316 | 20 | 283 | 16.1 | 20.9 | 0.00 | 0.00 | 0.00 | 51 | 1015.5 |
| 20260504195815 | 20 | 283 | 9.7 | 14.5 | 0.00 | 0.00 | 0.00 | 50 | 1015.4 |
| 20260504195335 | 20 | 283 | 6.4 | 11.3 | 0.00 | 0.00 | 0.00 | 52 | 1015.5 |
| 20260504194815 | 20 | 305 | 8.0 | 14.5 | 0.00 | 0.00 | 0.00 | 53 | 1015.6 |
| 20260504194315 | 20 | 260 | 11.3 | 17.7 | 0.00 | 0.00 | 0.00 | 54 | 1015.7 |
| 20260504193815 | 20 | 283 | 8.0 | 12.9 | 0.00 | 0.00 | 0.00 | 54 | 1015.6 |
| 20260504193315 | 19 | 283 | 4.8 | 8.0 | 0.00 | 0.00 | 0.00 | 55 | 1015.7 |
| 20260504192816 | 19 | 260 | 9.7 | 12.9 | 0.00 | 0.00 | 0.00 | 52 | 1015.8 |
| 20260504192335 | 20 | 283 | 4.8 | 8.0 | 0.00 | 0.00 | 0.00 | 51 | 1015.9 |
| 20260504191815 | 20 | 260 | 8.0 | 14.5 | 0.00 | 0.00 | 0.00 | 52 | 1015.9 |
| 20260504191315 | 19 | 283 | 6.4 | 12.9 | 0.00 | 0.00 | 0.00 | 52 | 1015.8 |
| 20260504190815 | 19 | 283 | 8.0 | 12.9 | 0.00 | 0.00 | 0.00 | 51 | 1015.9 |
| 20260504190335 | 19 | 260 | 9.7 | 14.5 | 0.00 | 0.00 | 0.00 | 53 | 1015.8 |
| 20260504185815 | 19 | 283 | 12.9 | 17.7 | 0.00 | 0.00 | 0.00 | 54 | 1015.8 |
| 20260504185315 | 19 | 260 | 9.7 | 12.9 | 0.00 | 0.00 | 0.00 | 55 | 1016.0 |
| 20260504184815 | 19 | 260 | 9.7 | 17.7 | 0.00 | 0.00 | 0.00 | 55 | 1016.0 |
| 20260504184335 | 19 | 260 | 6.4 | 9.7 | 0.00 | 0.00 | 0.00 | 54 | 1016.0 |
| 20260504183815 | 19 | 283 | 11.3 | 16.1 | 0.00 | 0.00 | 0.00 | 54 | 1016.0 |
| 20260504183315 | 19 | 260 | 6.4 | 16.1 | 0.00 | 0.00 | 0.00 | 53 | 1015.9 |
| 20260504182815 | 19 | 260 | 8.0 | 12.9 | 0.00 | 0.00 | 0.00 | 53 | 1016.0 |
| 20260504182317 | 19 | 260 | 8.0 | 14.5 | 0.00 | 0.00 | 0.00 | 51 | 1016.0 |
| 20260504181817 | 19 | 238 | 11.3 | 16.1 | 0.00 | 0.00 | 0.00 | 55 | 1016.1 |
| 20260504181315 | 18 | 305 | 9.7 | 14.5 | 0.00 | 0.00 | 0.00 | 55 | 1016.1 |
| 20260504180817 | 18 | 283 | 8.0 | 16.1 | 0.00 | 0.00 | 0.00 | 56 | 1016.0 |
| 20260504180317 | 18 | 260 | 12.9 | 16.1 | 0.00 | 0.00 | 0.00 | 56 | 1016.0 |
| 20260504175817 | 19 | 260 | 14.5 | 24.1 | 0.00 | 0.00 | 0.00 | 56 | 1016.1 |
| 20260504175316 | 18 | 305 | 4.8 | 8.0 | 0.00 | 0.00 | 0.00 | 55 | 1016.0 |
| 20260504174817 | 18 | 260 | 11.3 | 17.7 | 0.00 | 0.00 | 0.00 | 56 | 1016.0 |
| 20260504174337 | 18 | 260 | 9.7 | 16.1 | 0.00 | 0.00 | 0.00 | 54 | 1015.9 |
| 20260504173817 | 18 | 305 | 8.0 | 16.1 | 0.00 | 0.00 | 0.00 | 55 | 1015.9 |
| 20260504173317 | 18 | 260 | 9.7 | 16.1 | 0.00 | 0.00 | 0.00 | 57 | 1015.8 |
| 20260504172817 | 18 | 283 | 9.7 | 19.3 | 0.00 | 0.00 | 0.00 | 55 | 1015.8 |
| 20260504172337 | 18 | 260 | 6.4 | 9.7 | 0.00 | 0.00 | 0.00 | 58 | 1015.7 |
| 20260504171818 | 18 | 260 | 9.7 | 16.1 | 0.00 | 0.00 | 0.00 | 59 | 1015.8 |
| 20260504171317 | 18 | 238 | 9.7 | 12.9 | 0.00 | 0.00 | 0.00 | 60 | 1015.7 |
| 20260504170817 | 18 | 283 | 9.7 | 12.9 | 0.00 | 0.00 | 0.00 | 59 | 1015.7 |
| 20260504170317 | 17 | 215 | 8.0 | 11.3 | 0.00 | 0.00 | 0.00 | 61 | 1015.8 |
| 20260504160317 | 17 | 283 | 8.0 | 11.3 | 0.00 | 0.00 | 0.00 | 64 | 1015.5 |
| 20260504150817 | 15 | 260 | 4.8 | 6.4 | 0.00 | 0.00 | 0.00 | 73 | 1015.3 |
| 20260504150337 | 15 | 260 | 3.2 | 8.0 | 0.00 | 0.00 | 0.00 | 74 | 1015.3 |
| 20260504141317 | 14 | 260 | 4.8 | 6.4 | 0.00 | 0.00 | 0.00 | 76 | 1015.0 |
| 20260504140817 | 14 | 283 | 6.4 | 9.7 | 0.00 | 0.00 | 0.00 | 76 | 1015.0 |
| 20260504140317 | 14 | 260 | 6.4 | 9.7 | 0.00 | 0.00 | 0.00 | 75 | 1015.0 |
| 20260504130817 | 14 | 283 | 1.6 | 3.2 | 0.00 | 0.00 | 0.00 | 74 | 1014.7 |
| 20260504130317 | 14 | 260 | 6.4 | 11.3 | 0.00 | 0.00 | 0.00 | 74 | 1014.9 |
| 20260504120317 | 14 | 238 | 4.8 | 9.7 | 0.00 | 0.00 | 0.00 | 78 | 1014.6 |
| 20260504110316 | 14 | 283 | 4.8 | 6.4 | 0.00 | 0.00 | 0.00 | 79 | 1014.5 |
| 20260504100316 | 13 | 305 | 1.6 | 3.2 | 0.00 | 0.00 | 0.00 | 81 | 1014.5 |
| 20260504081816 | 15 | 260 | 1.6 | 4.8 | 0.00 | 0.00 | 0.00 | 78 | 1015.3 |
| 20260504081316 | 15 | 260 | 4.8 | 6.4 | 0.00 | 0.00 | 0.00 | 78 | 1015.7 |
| 20260504080816 | 15 | 283 | 4.8 | 4.8 | 0.00 | 0.00 | 0.00 | 78 | 1015.4 |
| 20260504080316 | 15 | 260 | 3.2 | 4.8 | 0.00 | 0.00 | 0.00 | 78 | 1015.4 |
| 20260504070337 | 15 | 260 | 8.0 | 9.7 | 0.00 | 0.00 | 0.00 | 75 | 1015.5 |
| 20260504050316 | 15 | 283 | 4.8 | 6.4 | 0.00 | 0.00 | 0.00 | 78 | 1015.0 |
| 20260504045816 | 15 | 260 | 4.8 | 8.0 | 0.00 | 0.00 | 0.00 | 79 | 1015.0 |
| 20260504045316 | 15 | 283 | 4.8 | 9.7 | 0.00 | 0.00 | 0.00 | 78 | 1015.0 |
| 20260504044816 | 15 | 260 | 4.8 | 8.0 | 0.00 | 0.00 | 0.00 | 78 | 1015.0 |
| 20260504044316 | 15 | 260 | 6.4 | 8.0 | 0.00 | 0.00 | 0.00 | 77 | 1015.0 |
| 20260504043836 | 15 | 260 | 4.8 | 11.3 | 0.00 | 0.00 | 0.00 | 77 | 1015.0 |
| 20260504043316 | 15 | 260 | 4.8 | 8.0 | 0.00 | 0.00 | 0.00 | 77 | 1014.9 |
| 20260504042816 | 15 | 260 | 6.4 | 9.7 | 0.00 | 0.00 | 0.00 | 76 | 1014.8 |
| 20260504042316 | 15 | 283 | 4.8 | 8.0 | 0.00 | 0.00 | 0.00 | 76 | 1015.0 |
| 20260504041836 | 15 | 260 | 3.2 | 6.4 | 0.00 | 0.00 | 0.00 | 76 | 1014.8 |
| 20260504041336 | 15 | 260 | 4.8 | 6.4 | 0.00 | 0.00 | 0.00 | 76 | 1014.7 |
| 20260504040816 | 15 | 283 | 6.4 | 8.0 | 0.00 | 0.00 | 0.00 | 76 | 1014.7 |
| 20260504040316 | 15 | 283 | 8.0 | 11.3 | 0.00 | 0.00 | 0.00 | 76 | 1014.7 |
| 20260504035816 | 15 | 260 | 8.0 | 12.9 | 0.00 | 0.00 | 0.00 | 75 | 1014.5 |
| 20260504035336 | 15 | 260 | 6.4 | 11.3 | 0.00 | 0.00 | 0.00 | 75 | 1014.4 |
| 20260504034816 | 15 | 283 | 1.6 | 3.2 | 0.00 | 0.00 | 0.00 | 75 | 1014.4 |
| 20260504034316 | 15 | 283 | 3.2 | 6.4 | 0.00 | 0.00 | 0.00 | 75 | 1014.6 |
| 20260504033816 | 15 | 260 | 3.2 | 4.8 | 0.00 | 0.00 | 0.00 | 74 | 1014.4 |
| 20260504033316 | 15 | 283 | 9.7 | 14.5 | 0.00 | 0.00 | 0.00 | 74 | 1014.4 |
| 20260504032856 | 15 | 305 | 9.7 | 14.5 | 0.00 | 0.00 | 0.00 | 74 | 1014.3 |
| 20260504032316 | 15 | 260 | 8.0 | 14.5 | 0.00 | 0.00 | 0.00 | 74 | 1014.2 |
| 20260504031816 | 15 | 283 | 8.0 | 12.9 | 0.00 | 0.00 | 0.00 | 74 | 1014.2 |
| 20260504031336 | 15 | 283 | 8.0 | 11.3 | 0.00 | 0.00 | 0.00 | 75 | 1014.1 |
| 20260504030816 | 15 | 260 | 3.2 | 3.2 | 0.00 | 0.00 | 0.00 | 75 | 1014.0 |
| 20260504030316 | 15 | 283 | 9.7 | 14.5 | 0.00 | 0.00 | 0.00 | 75 | 1013.9 |
| 20260504025816 | 16 | 260 | 8.0 | 11.3 | 0.00 | 0.00 | 0.00 | 75 | 1013.9 |
| 20260504025316 | 15 | 283 | 9.7 | 14.5 | 0.00 | 0.00 | 0.00 | 75 | 1014.0 |
| 20260504024816 | 15 | 283 | 9.7 | 16.1 | 0.00 | 0.00 | 0.00 | 75 | 1013.8 |
| 20260504024316 | 16 | 283 | 11.3 | 17.7 | 0.00 | 0.00 | 0.00 | 75 | 1013.8 |
| 20260504023816 | 16 | 260 | 12.9 | 16.1 | 0.00 | 0.00 | 0.00 | 75 | 1013.8 |
| 20260504023316 | 16 | 260 | 9.7 | 16.1 | 0.00 | 0.00 | 0.00 | 74 | 1013.8 |
| 20260504022816 | 16 | 260 | 12.9 | 20.9 | 0.00 | 0.00 | 0.00 | 74 | 1013.8 |
| 20260504022316 | 16 | 260 | 8.0 | 9.7 | 0.00 | 0.00 | 0.00 | 74 | 1013.8 |
| 20260504021836 | 16 | 260 | 11.3 | 16.1 | 0.00 | 0.00 | 0.00 | 74 | 1013.7 |
| 20260504021316 | 16 | 260 | 11.3 | 17.7 | 0.00 | 0.00 | 0.00 | 74 | 1013.6 |
| 20260504020816 | 16 | 260 | 9.7 | 12.9 | 0.00 | 0.00 | 0.00 | 74 | 1013.6 |
| 20260504020417 | 16 | 283 | 9.7 | 12.9 | 0.00 | 0.00 | 0.00 | 73 | 1013.3 |
| 20260504015816 | 16 | 260 | 9.7 | 14.5 | 0.00 | 0.00 | 0.00 | 72 | 1013.5 |
| 20260504015316 | 16 | 283 | 8.0 | 9.7 | 0.00 | 0.00 | 0.00 | 71 | 1013.4 |
| 20260504014816 | 16 | 260 | 9.7 | 14.5 | 0.00 | 0.00 | 0.00 | 71 | 1013.3 |
| 20260504014316 | 16 | 283 | 8.0 | 9.7 | 0.00 | 0.00 | 0.00 | 71 | 1013.3 |
| 20260504013816 | 16 | 260 | 8.0 | 9.7 | 0.00 | 0.00 | 0.00 | 71 | 1013.3 |
| 20260504013316 | 16 | 283 | 11.3 | 17.7 | 0.00 | 0.00 | 0.00 | 70 | 1013.2 |
| 20260504012836 | 16 | 260 | 8.0 | 12.9 | 0.00 | 0.00 | 0.00 | 70 | 1013.1 |
| 20260504012316 | 17 | 283 | 12.9 | 19.3 | 0.00 | 0.00 | 0.00 | 70 | 1013.2 |
| 20260504011836 | 17 | 260 | 9.7 | 12.9 | 0.00 | 0.00 | 0.00 | 70 | 1013.3 |
| 20260504011316 | 17 | 260 | 6.4 | 16.1 | 0.00 | 0.00 | 0.00 | 70 | 1013.2 |
| 20260504010836 | 17 | 260 | 8.0 | 11.3 | 0.00 | 0.00 | 0.00 | 70 | 1013.1 |
| 20260504010316 | 17 | 260 | 9.7 | 16.1 | 0.00 | 0.00 | 0.00 | 70 | 1013.1 |
| 20260504005816 | 17 | 283 | 8.0 | 14.5 | 0.00 | 0.00 | 0.00 | 71 | 1013.1 |
| 20260504005316 | 17 | 283 | 11.3 | 14.5 | 0.00 | 0.00 | 0.00 | 71 | 1013.0 |
| 20260504004816 | 17 | 283 | 8.0 | 12.9 | 0.00 | 0.00 | 0.00 | 71 | 1013.0 |
| 20260504004316 | 17 | 238 | 11.3 | 16.1 | 0.00 | 0.00 | 0.00 | 71 | 1013.1 |
| 20260504003836 | 17 | 283 | 6.4 | 8.0 | 0.00 | 0.00 | 0.00 | 72 | 1013.0 |
| 20260504003316 | 17 | 260 | 6.4 | 11.3 | 0.00 | 0.00 | 0.00 | 72 | 1012.9 |
| 20260504002816 | 17 | 283 | 8.0 | 11.3 | 0.00 | 0.00 | 0.00 | 72 | 1013.0 |
| 20260504002336 | 17 | 260 | 11.3 | 17.7 | 0.00 | 0.00 | 0.00 | 71 | 1013.0 |
| 20260504001816 | 17 | 283 | 6.4 | 9.7 | 0.00 | 0.00 | 0.00 | 72 | 1013.0 |